Location: ??????????
(48.5701°N, 37.7703°E)
Time: 18:29:02
(UTC+00:00)

Cosmos 1242 Rocket - Pass Details

Date: 14 July 2020
Orbit: 448 x 487 km, 81.2° (Epoch: 11 August)

Event Time Altitude Azimuth Distance (km) Brightness Sun altitude
Rises 00:07:25 0° 352° (N) 2,466 6.9 -12.0°
Reaches altitude 10° 00:09:32 10° 358° (N) 1,590 6.0 -11.8°
Maximum altitude 00:12:55 51° 75° (ENE) 579 3.3 -11.4°
Drops below altitude 10° 00:16:18 10° 153° (SSE) 1,587 4.9 -11.1°
Sets 00:18:24 0° 158° (SSE) 2,460 5.8 -10.9°
